www.pogodaiklimat.ru

Погода и климат >> Архив погоды >> Канада >> Wager Bay


ПОГОДА в Wager Bay

  • Прогноз погоды в Wager Bay
  • Монитор погоды в Wager Bay
  • Климат города

АРХИВ ПОГОДЫ в Wager Bay

Время (UTC), дата Ветер
(напр.,м/с)
 
Видим.   Явления Облачность Т
(С)
Тd
(С)
f
(%)
Тe
(С)
Тes
(С)
Комфортность P
(гПа)
Po
(гПа)
Тmin
(С)
Tmax
(С)
R
(мм)
R24
(мм)
S
(см)
21 7.08 ЮВ 5 н/о {осадки} н/о +10.0 +9.5 97 +7 +7 998.8 996.5 4
00 8.08 ЮВ 6 н/о {осадки} н/о +9.6 +8.9 95 +6 +6 999.2 996.9 +7.2 +10.6 6
03 8.08 ЮВ 4 н/о н/о +9.5 +9.0 97 +6 +6 999.5 997.2 3
06 8.08 ЮВ 1 н/о {осадки} н/о +9.3 +8.9 97 +9 +9 999.4 997.1 +7.2 +10.6 3
09 8.08 СЗ 2 н/о {осадки} н/о +8.1 +7.7 97 +6 +6 1000.0 997.7 0.9
12 8.08 СВ 9 н/о {осадки} н/о +10.1 +8.5 90 +6 +6 1000.0 997.7 +7.8 +10.6 1
15 8.08 СВ 11 н/о н/о +9.8 +6.7 81 +5 +5 1000.8 998.5
18 8.08 СВ 6 н/о н/о +10.5 +6.5 76 +7 +7 1002.2 999.9 +7.8 +10.8
21 8.08 СВ 7 н/о н/о +11.0 +7.5 79 +8 +8 1003.3 1001.0 0.2
00 9.08 СВ 6 н/о {осадки} н/о +10.4 +5.2 70 +7 +7 1004.4 1002.1 +7.8 +11.7 0.2
03 9.08 С 4 н/о н/о +9.2 +4.3 71 +7 +7 1005.0 1002.7
06 9.08 СЗ 2 н/о н/о +6.3 +2.9 79 +5 +5 1005.6 1003.3 +6.3 +11.7 15
09 9.08 С 2 н/о н/о +5.5 +2.9 83 +3 +3 1006.2 1003.9
12 9.08 С 4 н/о н/о +7.0 +3.3 77 +4 +4 1006.7 1004.4 +5.0 +11.7
15 9.08 З 3 н/о н/о +10.1 +4.0 66 +8 +8 1006.4 1004.1
18 9.08 ЮЗ 5 н/о н/о +11.3 +4.4 62 +9 +9 1005.7 1003.4 +5.0 +12.1
21 9.08 ЮЗ 4 н/о н/о +12.1 +1.3 48 +11 +11 1005.4 1003.1
00 10.08 ЮВ 1 н/о н/о +11.2 +3.4 59 +11 +11 1005.4 1003.1 +5.0 +13.1
03 10.08 ЮВ 1 н/о н/о +10.1 +2.7 60 +11 +11 1005.0 1002.7
06 10.08 З 2 н/о н/о +8.3 +4.5 77 +7 +7 1005.0 1002.7 +5.0 +13.1
09 10.08 З 3 н/о н/о +7.9 +6.3 90 +5 +5 1005.5 1003.2
12 10.08 ЮЗ 4 н/о н/о +10.0 +6.2 77 +8 +8 1006.6 1004.3 +7.7 +13.1
15 10.08 СЗ 3 н/о н/о +11.0 +6.6 74 +9 +9 1006.9 1004.6
18 10.08 З 8 н/о н/о +10.8 +6.2 73 +7 +7 1007.8 1005.5 +7.7 +12.5
21 10.08 С 6 н/о н/о +12.8 +3.3 52 +11 +11 1008.5 1006.2
00 11.08 СВ 5 н/о н/о +11.6 +3.9 59 +9 +9 1009.1 1006.8 +7.7 +13.2
03 11.08 В 5 н/о н/о +9.6 +4.4 70 +6 +6 1008.9 1006.6
06 11.08 ЮВ 3 н/о н/о +8.0 +4.3 77 +6 +6 1008.4 1006.1 +7.7 +13.2 20
09 11.08 ЮВ 9 н/о н/о +7.8 +3.4 74 +3 +3 1006.4 1004.1
12 11.08 ЮВ 8 н/о н/о +7.5 +2.2 69 +3 +3 1003.3 1001.0 +7.0 +13.2
15 11.08 В 11 н/о н/о +6.6 +3.4 80 +1 +1 999.1 996.8 0.7
18 11.08 В 11 н/о {осадки} н/о +7.1 +5.2 88 +1 +1 994.9 992.6 +6.5 +8.3 1
21 11.08 В 9 н/о н/о +8.2 +6.8 91 +3 +3 990.8 988.6 3
00 12.08 В 9 н/о {осадки} н/о +7.7 +6.1 90 +2 +2 987.7 985.5 +6.5 +8.4 4
03 12.08 СВ 8 н/о {осадки} н/о +7.3 +5.7 90 +2 +2 987.0 984.8 6
06 12.08 СВ 11 н/о {осадки} н/о +6.6 +4.2 85 +1 +1 986.9 984.7 +6.4 +8.4 8 17
09 12.08 С 12 н/о н/о +6.2 +4.0 86 -0 -0 989.0 986.8 0.2
12 12.08 С 12 н/о {осадки} н/о +6.5 +3.7 82 0 0 992.2 990.0 +6.2 +8.4 0.5
15 12.08 С 15 н/о н/о +6.7 +3.0 77 -0 -0 994.7 992.4
18 12.08 С 15 н/о {осадки} н/о +7.5 +3.6 76 +1 +1 997.6 995.3 +6.2 +7.6 0.2
21 12.08 СЗ 14 н/о н/о +7.9 +3.1 72 +2 +2 1000.0 997.7
00 13.08 СЗ 14 н/о н/о +7.9 +3.1 72 +2 +2 1000.0 997.7
03 13.08 СЗ 12 н/о н/о +5.8 +1.5 74 -1 -1 1004.6 1002.3
06 13.08 СЗ 13 н/о н/о +4.7 +0.6 75 -2 -2 1006.2 1003.9 +4.6 +8.2
09 13.08 СЗ 10 н/о н/о +4.0 +0.4 77 -3 -3 1008.1 1005.8
12 13.08 СЗ 9 н/о н/о +4.4 +0.8 77 -2 -2 1009.6 1007.3 +3.4 +8.2
15 13.08 З 6 н/о н/о +6.7 +1.6 70 +3 +3 1009.6 1007.3
18 13.08 З 6 н/о н/о +8.8 +3.3 68 +5 +5 1008.9 1006.6 +3.4 +8.8
21 13.08 З 3 н/о н/о +11.5 +4.4 62 +10 +10 1008.3 1006.0
00 14.08 Ю 3 н/о н/о +9.0 +5.5 79 +7 +7 1008.2 1005.9 +3.4 +11.6 0.2
03 14.08 ЮВ 3 н/о н/о +6.8 +4.5 85 +4 +4 1008.3 1006.0
06 14.08 Ю 1 н/о н/о +6.0 +4.4 89 +6 +6 1007.8 1005.5 +3.4 +11.6 8
09 14.08 В 2 н/о н/о +6.6 +4.6 87 +5 +5 1007.1 1004.8
12 14.08 Ю 1 н/о н/о +5.9 +4.2 89 +5 +5 1006.5 1004.2 +5.3 +11.6
15 14.08 ЮВ 6 н/о н/о +9.1 +4.5 73 +6 +6 1004.9 1002.6
18 14.08 Ю 7 н/о н/о +9.5 +3.8 68 +6 +6 1003.0 1000.7 +5.3 +10.8

 

Местоположение метеостанции Wager Bay (Канада): широта 65.88 долгота -89.43 высота над уровнем моря 18 м.

В архиве по умолчанию представлена погода в Wager Bay за последнюю неделю. Архивные данные за месяц целиком и за предыдущие месяцы, начиная с января 2011 года, Вы можете получить, выбрав интересующий диапазон дат из раскрывающегося списка и нажав кнопку "Ввод!".


*Определитесь, кто Вы:
робот инопланетянин человек

Внимание! Время в таблицах - всемирное. Для получения местного времени необходимо прибавить поправку, которая в Wager Bay равна -6 ч.

Смотрите также архив погоды в соседних городах и на ближайших метеорологических станциях:

Погода в Pelly Bay (Канада) (284 км)
Погода в Kugaaruk climate (Канада) (295 км)
Погода в Back River MAPS (Канада) (321 км)
Погода в Coral Harbour Arpt (Канада) (340 км)
Погода в Baker Lake Climate (Канада) (353 км)
Погода в Baker Lake Airport (Канада) (357 км)
Погода в Rankin Inlet (Канада) (364 км)
Погода в Shepherd Bay (Канада) (369 км)
Погода в Gjoa Haven Climate (Канада) (412 км)
Погода в Spence bay (Канада) (444 км)

Пояснения к столбцам:

Ветер - указаны скорость ветра в м/с - средняя за 10 мин, порывы в срок и между сроками (в фигурных скобках) и направление, откуда дует ветер: С - северный, СВ - северо-восточный, В - восточный, ЮВ - юго-восточный, Ю - южный, ЮЗ - юго-западный, З - западный, СЗ - северо-западный.
Видимость - горизонтальная дальность видимости в метрах или километрах. При видимости от 1 до 10 км при отсутствии осадков обычно наблюдается дымка, при ухудшении видимости до 1 км и менее - туман. В сухую погоду видимость может ухудшаться дымом, пылью или мглою.
Явления - указаны атмосферные явления, наблюдавшиеся в срок или в последний час перед сроком; фигурными скобками обозначены явления, наблюдавшиеся между сроками (за 1-3 часа до срока); квадратными скобками обозначены град или гололедные отложения с указанием их диаметра в мм.
Облачность - указаны через наклонную черту общая и нижняя облачность в баллах и высота нижней границы облаков в метрах; квадратными скобками обозначены формы облаков: Ci - перистые, Cs - перисто-слоистые, Cc - перисто-кучевые, Ac - высококучевые, As - высокослоистые, Sc - слоисто-кучевые, Ns - слоисто-дождевые, Cu - кучевые, Cb - кучево-дождевые. Подробнее классификацию облаков см. в Атласе облаков (PDF).
T - Температура воздуха - температура, измеренная на высоте 2 м над землей.
Td - Температура точки росы - температура, при понижении до которой содержащийся в воздухе водяной пар достигнет насыщения.
f - Относительная влажность воздуха - влажноcть воздуха, измеренная на высоте 2 м над землей.
Te - Эффективная температура - температура, которую ощущает одетый по сезону человек в тени. Характеристика душности погоды. При расчете учитывается влияние влажности воздуха и скорости ветра на теплоощущения человека.
Tes - Эффективная температура на солнце - температура, которую ощущает человек, с поправкой на солнечный нагрев. Характеристика знойности погоды. Зависит от высоты солнца над горизонтом, облачности и скорости ветра. Ночью, в пасмурную погоду, а также при ветре 12 м/с и более поправка равна нулю.
P - Атмосферное давление - приведенное к уровню моря атмосферное давление.
Po - Атмосферное давление - измеренное на уровне метеостанции атмосферное давление.
Tmin - Минимальная температура - минимум температуры воздуха на высоте 2 м над землей.
Tmax - Максимальная температура - максимум температуры воздуха на высоте 2 м над землей.
R - Количество осадков - Количество выпавших осадков за период времени, мм. При наведении курсора мыши на число - период времени, за который выпало указанное количество осадков.
R24 - Количество осадков - Количество выпавших осадков за 24 часа, мм.
S - Снежный покров - Высота снежного покрова, см. При наведении курсора мыши на число - состояние снежного покрова и степень покрытия местности в баллах.